Location: Newark
(42.8481°N, 0.4872°E)
Time: 12:49:58
(UTC+00:00)

A-11 Canister half - Pass Details

Date: 29 October 2020
Orbit: 1525 x 1684 km, 47.3° (Epoch: 01 December)

Event Time Altitude Azimuth Distance (km) Brightness Sun altitude
Rises 20:06:26 0° 295° (WNW) 4,697 12.5 -35.6°
Reaches altitude 10° 20:09:32 10° 292° (WNW) 3,703 11.8 -36.2°
Maximum altitude 20:18:37 60° 216° (SW) 1,709 9.1 -37.8°
Enters shadow 20:18:46 60° 211° (SSW) 1,710 9.1 -37.8°
Drops below altitude 10° 20:27:41 10° 139° (SE) 3,705 - -39.3°
Sets 20:30:48 0° 136° (SE) 4,700 - -39.9°
